Weather History for KLND - November, 2011

Change the Weather History Date:

Tuesday, November 8, 2011

  Actual Average Record
Temperature  
Mean Temperature 30 °F 36 °F  
Max Temperature 41 °F 48 °F 68 °F (1999)
Min Temperature 18 °F 24 °F -4 °F (1895)
Degree Days  
Heating Degree Days 35 30  
Month to date heating degree days 275 221  
Since 1 July heating degree days 876 1082  
Cooling Degree Days 0 0  
Month to date cooling degree days 0 0  
Year to date cooling degree days 576 472  
Moisture  
Dew Point 13 °F    
Average Humidity 53    
Maximum Humidity 77    
Minimum Humidity 28    
Precipitation  
Precipitation 0.00 in 0.03 in 1.20 in (1919)
Month to date precipitation 0.55 0.26  
Year to date precipitation 14.01 11.48  
Snow  
Snow 0.00 in 0.40 in - ()
Month to date snowfall 5.0 3.2  
Since 1 July snowfall 9.0 15.7  
Since 1 September snowfall 9.0 15.7  
Snow Depth 0.00 in    
Sea Level Pressure  
Sea Level Pressure 30.26 in    
Wind  
Wind Speed 5 mph (SW)    
Max Wind Speed 14 mph    
Max Gust Speed 16 mph    
Visibility 10 miles    
Events      
T = Trace of Precipitation, MM = Missing Value Source: NWS Daily Summary

Daily Weather History Graph

Daily Weather History Graph

Search for Another Location

Airport or City:

Trip Planner

Search our weather history database for the weather conditions in past years. The results will help you decide how hot, cold, wet, or windy it might be!

Date:

Astronomy

Nov. 08, 2011 Rise Set
Actual Time 6:57 AM MST 4:59 PM MST
Civil Twilight 6:27 AM MST 5:28 PM MST
Nautical Twilight 5:53 AM MST 6:02 PM MST
Astronomical Twilight 5:20 AM MST 6:35 PM MST
Moon 3:41 PM MST (11/8) 4:58 AM MST (11/8)
Length of Visible Light 11h 01m
Length of Day
10h 01m
Waxing Gibbous, 96% of the Moon is Illuminated
Nov 8
Waxing Gibbous
Nov 10
Full
Nov 18
Last Quarter
Nov 24
New
Dec 2
First Quarter

Hourly Weather History & Observations

Time (MST) Temp. Windchill Dew Point Humidity Pressure Visibility Wind Dir Wind Speed Gust Speed Precip Events Conditions
12:53 AM 24.1 °F 16.0 °F 10.0 °F 55% 30.10 in 10.0 mi SW 6.9 mph - N/A   Clear
1:53 AM 21.9 °F - 14.0 °F 72% 30.12 in 10.0 mi Calm Calm - N/A   Clear
2:53 AM 23.0 °F 14.7 °F 10.9 °F 60% 30.11 in 10.0 mi West 6.9 mph - N/A   Clear
3:53 AM 21.0 °F 11.4 °F 10.9 °F 65% 30.13 in 10.0 mi WSW 8.1 mph - N/A   Clear
4:53 AM 19.0 °F - 12.0 °F 74% 30.16 in 10.0 mi Calm Calm - N/A   Clear
5:53 AM 19.0 °F 11.1 °F 9.0 °F 65% 30.19 in 10.0 mi SSW 5.8 mph - N/A   Clear
6:53 AM 18.0 °F - 10.9 °F 74% 30.23 in 10.0 mi Calm Calm - N/A   Clear
7:53 AM 21.9 °F 17.2 °F 12.9 °F 68% 30.25 in 10.0 mi NW 3.5 mph - N/A   Clear
8:53 AM 24.1 °F 19.7 °F 17.1 °F 75% 30.26 in 10.0 mi East 3.5 mph - N/A   Clear
9:53 AM 30.0 °F - 14.0 °F 51% 30.24 in 10.0 mi Calm Calm - N/A   Clear
10:53 AM 36.0 °F 31.1 °F 14.0 °F 41% 30.22 in 10.0 mi SSE 5.8 mph - N/A   Clear
11:53 AM 37.0 °F - 10.9 °F 34% 30.22 in 10.0 mi Calm Calm - N/A   Clear
12:53 PM 39.0 °F 34.0 °F 10.9 °F 32% 30.20 in 10.0 mi South 6.9 mph - N/A   Clear
1:53 PM 41.0 °F 34.7 °F 10.9 °F 29% 30.20 in 10.0 mi South 10.4 mph - N/A   Clear
2:53 PM 39.9 °F 34.5 °F 10.9 °F 31% 30.21 in 10.0 mi SSE 8.1 mph - N/A   Clear
3:53 PM 39.0 °F 35.7 °F 10.9 °F 32% 30.24 in 10.0 mi SSE 4.6 mph - N/A   Clear
4:53 PM 33.1 °F 30.0 °F 12.9 °F 43% 30.31 in 10.0 mi SW 3.5 mph - N/A   Clear
5:53 PM 30.0 °F 24.1 °F 15.1 °F 54% 30.35 in 10.0 mi WNW 5.8 mph - N/A   Clear
6:53 PM 28.0 °F 20.8 °F 15.1 °F 58% 30.41 in 10.0 mi WNW 6.9 mph - N/A   Clear
7:53 PM 27.0 °F 19.5 °F 15.1 °F 61% 30.40 in 10.0 mi WSW 6.9 mph - N/A   Clear
8:53 PM 27.0 °F 17.3 °F 14.0 °F 58% 30.41 in 10.0 mi WSW 10.4 mph - N/A   Clear
9:53 PM 25.0 °F - 14.0 °F 63% 30.41 in 10.0 mi Calm Calm - N/A   Clear
10:53 PM 25.0 °F - 14.0 °F 63% 30.40 in 10.0 mi Calm Calm - N/A   Clear
11:53 PM 26.1 °F 16.8 °F 10.9 °F 53% 30.40 in 10.0 mi SW 9.2 mph - N/A   Clear